Location: Croisilles
(50.1998°N, 2.8793°E)
Time: 13:01:26
(UTC+00:00)

ARGOS - Pass Details

Date: 21 January 2021
Orbit: 821 x 834 km, 98.4° (Epoch: 26 February)

Event Time Altitude Azimuth Distance (km) Brightness Sun altitude
Rises 17:13:34 0° 119° (ESE) 3,350 5.9 -8.0°
Reaches altitude 10° 17:16:24 10° 105° (ESE) 2,423 5.1 -8.4°
Maximum altitude 17:20:21 22° 57° (ENE) 1,755 4.3 -9.0°
Drops below altitude 10° 17:24:20 10° 9° (N) 2,439 5.3 -9.6°
Sets 17:27:11 0° 355° (N) 3,379 6.2 -10.0°
